Wind_Speed
9 12 12 16 21 29 37 41 42 42 38 33 31 32 31 25 22 18 15 12 10 6 3 3 4 6 11 13 12 21 33 31 28 32 32 32 30 30 34 35 31 24 28 28 28 28 28 24 24
9 6 10 14 21 28 34 39 42 41 42 35 32 31 30 26 24 18 16 17 13 10 7 5 2 3 5 8 12 16 21 27 31 31 30 32 32 30 29 27 26 26 26 27 28 27 26 25 23
7 6 4 9 19 23 29 36 39 40 44 37 32 32 34 30 26 23 17 21 19 12 6 4 2 3 4 6 5 5 7 13 22 36 31 32 29 34 32 29 28 28 29 26 23 20 20 16 18
12 9 3 7 14 17 26 31 38 39 42 39 30 30 33 33 31 24 19 22 18 17 9 3 1 7 8 7 6 7 5 5 5 6 14 26 36 32 39 35 24 23 21 19 16 16 18 17 16
5 8 0 5 11 15 21 25 31 34 39 41 33 32 30 33 33 28 27 24 23 22 10 2 5 8 10 9 7 9 9 8 8 6 5 5 4 5 7 9 10 13 12 13 15 14 17 19 13
4 12 3 5 6 8 18 21 24 35 37 42 37 33 30 32 33 31 29 32 28 23 14 6 10 13 13 12 11 9 10 10 11 10 9 11 8 8 6 9 11 11 11 10 8 10 11 5 6
9 6 7 4 11 8 13 17 20 31 34 39 38 34 32 33 34 36 32 32 31 21 22 12 12 14 15 13 11 8 7 7 7 8 6 6 5 2 3 8 8 7 5 4 6 10 8 4 6
16 13 1 8 8 7 9 13 17 27 32 38 37 35 33 35 33 36 33 29 34 26 26 22 16 13 14 12 11 9 8 8 4 8 8 6 6 2 4 7 4 3 7 9 11 12 9 10 10
19 18 8 1 6 5 6 11 16 23 33 35 34 34 32 34 37 37 36 32 34 29 25 24 22 17 16 15 15 11 9 8 8 5 6 1 6 5 8 4 2 2 8 12 11 9 8 5 4
24 20 18 6 5 6 2 6 10 17 27 31 32 33 30 32 34 35 34 36 32 31 29 28 19 17 17 18 15 12 10 11 11 8 5 7 7 10 4 7 8 11 11 11 11 13 11 9 11
27 22 21 21 9 8 5 2 5 11 19 23 29 33 28 31 31 34 34 32 35 31 30 28 25 17 9 5 7 9 10 7 9 9 4 5 7 5 14 16 17 16 15 13 13 12 12 8 8
31 25 27 25 20 14 9 4 1 5 16 25 28 32 30 30 32 31 33 35 34 35 31 28 26 21 18 8 4 4 8 10 11 12 18 24 27 27 23 22 19 16 14 14 11 11 8 6 5
34 31 29 25 19 15 11 4 4 1 10 21 23 29 31 32 34 34 34 33 33 36 34 28 24 26 20 14 9 9 10 8 12 19 26 26 26 23 21 21 17 18 15 11 10 7 9 16 17
38 35 33 32 23 17 15 11 12 8 5 15 22 27 29 28 34 37 32 32 35 34 35 31 32 29 24 25 23 23 20 17 16 18 17 18 19 22 20 17 16 14 12 10 11 15 17 16 17
41 39 37 38 28 23 17 16 17 7 5 5 15 24 24 23 28 35 36 33 37 37 36 36 35 32 31 31 33 30 26 26 26 20 18 21 24 23 21 23 21 18 14 14 15 16 17 23 26
47 44 42 39 33 28 21 23 18 20 16 12 11 19 17 18 25 29 31 34 36 39 39 39 38 37 34 35 35 35 34 33 32 28 25 24 22 24 27 27 24 25 22 19 18 18 22 25 25
52 47 44 42 40 32 27 28 27 25 20 12 3 12 12 14 22 23 28 33 33 39 41 40 43 40 36 32 36 38 38 35 34 30 28 27 25 25 26 26 29 29 25 21 22 22 23 23 23
54 51 47 45 43 39 33 29 29 22 17 15 7 6 8 9 16 21 25 26 30 34 38 38 41 43 41 37 35 32 30 33 29 28 23 26 23 24 29 31 30 26 28 27 27 27 24 25 22
59 57 52 50 45 41 37 33 28 27 25 20 14 6 2 8 8 16 21 20 25 29 33 36 38 40 44 40 37 35 30 30 29 29 27 23 22 23 27 28 30 29 29 32 29 27 27 28 22
64 62 57 53 47 41 43 40 35 34 32 27 19 11 5 1 6 12 15 17 19 25 26 34 39 40 44 45 47 42 39 37 34 32 31 28 24 21 20 19 19 20 21 26 27 29 28 29 26
66 66 62 58 52 45 46 46 41 37 33 29 22 15 11 8 2 7 11 15 17 20 23 30 33 32 37 40 41 41 42 45 45 41 40 37 30 23 18 18 18 16 21 23 25 22 24 31 30
66 70 67 60 59 57 51 51 47 41 36 31 25 21 15 14 5 5 7 10 14 14 19 22 25 25 29 32 35 36 38 41 41 45 44 45 42 32 25 20 19 20 23 25 25 23 26 33 35
69 72 68 65 63 60 58 54 48 46 44 35 31 26 23 19 9 9 7 7 10 12 13 17 15 17 22 28 30 31 32 32 37 40 41 45 42 40 31 32 23 22 24 26 25 27 32 33 30
72 74 72 69 66 65 62 62 56 51 45 40 35 29 27 22 14 12 10 9 7 9 9 7 8 13 17 18 26 30 29 29 30 31 32 37 38 41 38 37 34 22 19 21 20 20 23 19 20
69 74 79 67 70 65 63 60 57 51 48 43 37 33 31 25 18 16 12 11 8 8 6 5 6 10 12 12 13 16 17 19 21 24 25 29 32 33 37 40 38 37 31 22 18 15 12 15 15
73 75 82 81 68 63 61 64 60 56 51 49 45 40 35 29 18 20 16 12 11 9 7 4 3 4 5 6 6 9 13 12 12 14 15 17 20 23 26 30 33 36 37 34 29 24 21 18 14
82 77 81 84 80 70 62 59 63 56 53 50 50 43 43 32 27 24 24 21 13 11 10 7 2 1 1 3 4 3 5 7 8 9 12 13 16 18 19 20 22 27 32 32 33 34 30 25 18
81 77 81 85 82 76 67 62 63 59 55 53 48 47 47 37 35 29 30 26 22 12 12 8 5 3 3 6 5 4 7 5 6 7 7 8 11 13 15 16 18 19 22 24 25 27 30 31 29
84 79 82 85 82 76 78 68 64 64 61 57 54 53 49 40 39 31 33 33 29 19 14 14 8 5 3 8 10 11 9 8 6 4 5 5 6 7 9 13 14 12 11 13 15 20 21 24 27
85 78 78 82 80 77 78 73 68 67 64 61 54 52 50 45 44 36 34 37 33 28 18 19 14 15 12 10 14 16 15 13 11 9 5 7 4 4 3 3 5 7 9 9 15 13 14 14 15
Wind_Direction
43 34 26 38 23 30 29 23 26 24 23 24 24 28 31 33 31 24 30 25 6 340 352 281 213 207 216 212 203 215 228 232 237 241 243 250 253 260 266 267 272 269 274 276 278 277 279 267 262
72 52 35 5 11 29 27 26 26 26 25 29 25 31 30 32 34 41 39 23 10 0 331 297 294 136 149 191 216 221 223 232 240 244 249 250 254 259 269 267 268 266 268 274 273 271 269 264 256
66 17 7 13 358 17 27 28 27 26 28 32 29 38 37 33 30 27 20 26 20 17 4 358 229 144 123 137 146 175 211 230 235 231 241 251 250 252 257 260 269 271 274 269 270 274 270 264 256
107 21 161 329 345 15 28 27 30 30 31 32 28 35 40 35 34 31 22 25 27 19 5 323 207 150 146 145 115 132 144 161 168 195 229 240 243 254 250 265 267 267 266 265 256 258 246 263 259
9 142 235 343 329 359 21 27 28 32 33 33 28 32 41 37 35 31 23 19 20 10 18 13 106 123 145 144 131 118 97 105 101 105 118 142 176 221 238 260 267 272 268 270 259 259 250 231 240
140 120 314 325 322 344 24 23 31 38 38 33 27 34 38 40 36 31 27 31 30 31 44 116 125 129 136 135 118 106 94 83 86 82 96 106 98 77 25 281 264 251 261 258 232 232 241 205 215
220 162 254 354 348 5 30 20 31 38 33 35 29 37 43 43 38 33 33 32 37 45 39 101 124 136 142 134 121 107 73 67 78 95 141 116 104 190 335 284 256 251 250 239 176 169 183 207 255
227 209 84 359 346 2 37 24 33 30 38 37 32 35 46 50 42 38 42 40 43 52 56 73 109 130 139 137 123 107 94 66 118 113 134 114 31 252 252 274 271 186 147 140 143 156 170 187 214
225 227 211 284 333 305 359 33 34 37 37 40 33 36 45 50 51 45 45 41 42 54 62 59 68 94 114 118 107 96 67 71 83 102 144 239 348 354 310 244 272 107 121 124 131 148 180 198 168
226 223 217 185 228 234 243 49 33 36 35 35 34 40 41 44 51 47 43 42 45 46 50 54 69 88 103 116 105 89 68 81 44 50 358 312 308 325 277 114 115 113 114 114 112 109 108 114 112
226 225 221 209 219 207 190 113 40 26 25 30 42 40 40 45 52 51 48 43 43 44 44 46 45 58 97 111 109 99 64 45 35 35 40 318 298 145 113 110 103 113 108 104 107 110 102 89 109
220 222 216 221 229 216 208 208 328 24 47 39 45 36 36 37 50 54 46 44 45 44 51 53 51 54 74 121 111 65 42 65 28 62 90 96 105 105 102 101 109 111 109 114 110 109 94 94 80
221 214 221 215 221 212 211 215 244 138 46 38 42 38 26 32 43 51 52 47 48 50 50 53 52 53 55 71 73 49 64 60 38 93 94 95 90 98 106 89 102 114 109 110 122 99 93 99 102
218 213 220 216 213 216 215 219 201 161 65 45 49 41 26 31 47 55 57 52 53 54 54 58 56 57 68 86 83 77 67 66 77 97 90 72 89 86 94 99 109 115 113 115 123 111 111 111 98
216 214 213 221 207 217 203 176 216 211 278 33 47 39 23 32 49 53 59 57 59 59 57 61 62 60 72 81 80 79 80 79 78 85 90 73 66 70 75 85 92 101 107 114 112 113 113 107 101
213 213 212 214 211 209 201 189 200 210 274 266 52 50 36 37 38 57 56 59 59 63 65 62 63 61 69 77 81 78 78 82 84 83 85 82 77 74 81 85 85 92 94 100 106 104 112 107 104
213 214 212 212 214 210 208 200 191 221 232 225 88 57 28 49 39 53 58 60 61 67 67 65 66 65 67 76 81 79 81 80 83 85 86 91 91 86 88 87 85 91 93 98 98 104 102 103 107
212 213 212 212 212 214 216 214 210 201 206 207 170 69 49 53 46 45 62 63 62 70 72 70 67 68 66 69 75 80 89 79 80 73 92 94 95 98 96 94 91 88 86 94 93 91 97 106 107
211 210 211 211 210 211 219 216 209 209 209 207 192 148 69 46 53 50 67 68 70 68 71 75 75 73 71 70 69 69 76 76 71 75 79 87 96 101 102 96 91 83 88 92 88 93 98 100 95
212 210 209 209 207 209 217 217 212 211 218 215 188 182 210 313 89 74 67 73 74 80 77 76 76 79 78 75 74 72 71 74 76 77 78 79 89 103 108 106 99 90 89 86 80 79 88 85 96
212 210 206 208 197 200 208 214 212 211 213 209 203 206 171 170 191 110 83 81 74 90 88 80 79 77 81 80 77 74 73 70 68 68 69 71 76 88 99 103 107 98 84 83 91 92 87 92 100
209 210 208 205 203 201 207 212 215 207 206 211 203 207 181 176 149 142 119 95 92 89 101 92 82 86 85 80 75 71 69 71 69 68 70 64 65 71 75 94 100 95 90 90 88 91 95 106 105
206 209 207 205 203 203 206 211 208 209 208 214 208 211 185 194 157 188 173 140 105 103 90 113 95 87 97 97 82 75 72 73 70 72 70 67 64 63 66 75 96 103 103 93 93 97 107 110 105
204 204 203 208 207 207 206 212 211 214 211 215 218 213 204 200 190 200 196 173 141 111 95 89 106 82 108 108 89 77 78 77 71 71 70 68 63 64 68 68 75 89 96 97 103 103 108 101 92
205 205 204 194 201 199 201 207 213 211 214 212 218 210 209 199 201 209 195 180 170 141 128 89 84 93 112 110 114 84 87 78 75 72 68 70 66 65 70 70 73 72 79 96 104 106 100 97 113
204 206 205 197 193 203 205 211 215 217 217 217 216 210 210 200 202 218 197 194 194 173 147 131 88 65 93 91 103 95 88 89 78 67 69 74 61 63 73 69 69 72 71 71 77 86 91 106 129
203 205 203 203 204 206 200 208 210 211 214 217 214 209 206 204 215 205 206 208 207 212 182 175 173 124 319 330 10 357 71 61 60 58 71 85 65 66 71 76 72 72 71 70 70 70 73 87 106
204 204 204 203 203 202 201 208 209 207 212 214 212 205 206 213 210 204 218 209 211 219 223 200 177 252 256 275 286 301 327 8 34 32 70 54 61 64 72 75 84 79 75 77 74 68 69 71 71
204 205 204 204 202 200 203 207 208 210 209 214 214 215 210 217 215 211 210 215 210 214 225 223 217 219 289 278 276 272 269 297 322 348 358 29 71 75 79 81 86 90 80 72 71 78 72 68 69
202 205 206 202 202 199 202 206 206 211 211 211 213 214 213 211 215 223 212 212 218 215 214 226 240 232 246 285 282 266 272 275 286 294 313 323 346 31 60 129 106 88 87 76 67 76 78 62 58
Height
10982 10982 10979 10976 10974 10970 10966 10962 10958 10953 10949 10942 10935 10931 10927 10924 10922 10918 10915 10914 10912 10911 10910 10909 10909 10910 10910 10911 10913 10916 10919 10922 10924 10926 10929 10931 10933 10935 10936 10936 10937 10939 10940 10938 10938 10939 10940 10940 10941
10983 10984 10980 10978 10976 10972 10967 10963 10960 10957 10950 10944 10940 10934 10931 10927 10923 10920 10917 10913 10910 10908 10907 10907 10905 10906 10908 10909 10912 10914 10916 10919 10921 10922 10924 10926 10928 10929 10930 10930 10933 10934 10934 10934 10935 10935 10936 10936 10937
10986 10986 10984 10980 10976 10975 10970 10968 10963 10959 10952 10947 10943 10938 10934 10930 10926 10922 10919 10915 10911 10907 10905 10904 10904 10905 10907 10908 10909 10911 10914 10916 10917 10918 10919 10921 10924 10925 10926 10927 10928 10929 10929 10929 10931 10931 10931 10933 10933
10987 10987 10986 10983 10980 10977 10973 10970 10966 10960 10956 10951 10946 10942 10937 10933 10927 10923 10920 10916 10911 10908 10905 10903 10903 10905 10907 10908 10910 10912 10913 10915 10915 10915 10917 10919 10922 10923 10924 10925 10925 10924 10924 10924 10926 10928 10928 10930 10930
10986 10985 10987 10984 10984 10980 10977 10975 10972 10965 10961 10957 10952 10946 10940 10936 10929 10925 10921 10917 10912 10907 10904 10903 10904 10905 10908 10911 10912 10914 10915 10915 10914 10915 10916 10918 10919 10921 10921 10921 10920 10920 10920 10920 10921 10924 10925 10928 10929
10986 10985 10986 10984 10984 10982 10979 10978 10975 10970 10965 10960 10956 10950 10943 10938 10933 10928 10922 10918 10912 10907 10902 10901 10903 10906 10909 10911 10913 10914 10916 10915 10916 10916 10917 10918 10919 10919 10919 10918 10918 10919 10920 10918 10917 10919 10921 10926 10928
10985 10985 10984 10985 10983 10982 10981 10980 10977 10973 10969 10965 10959 10954 10946 10939 10934 10930 10925 10919 10915 10910 10904 10901 10904 10906 10909 10912 10913 10915 10916 10916 10916 10915 10917 10918 10917 10917 10917 10916 10916 10918 10918 10918 10917 10919 10922 10924 10925
10983 10984 10986 10985 10984 10984 10982 10981 10978 10975 10970 10967 10963 10958 10950 10945 10940 10935 10928 10926 10919 10913 10909 10906 10906 10908 10912 10913 10916 10917 10918 10917 10916 10915 10915 10916 10916 10915 10915 10915 10916 10917 10917 10917 10919 10922 10924 10926 10928
10980 10983 10985 10985 10985 10984 10984 10982 10979 10977 10972 10969 10966 10960 10954 10950 10944 10939 10934 10929 10923 10918 10914 10911 10912 10912 10913 10915 10918 10918 10919 10918 10917 10917 10917 10916 10915 10915 10914 10915 10916 10918 10919 10919 10921 10923 10926 10927 10929
10979 10982 10983 10984 10982 10984 10985 10983 10982 10979 10976 10973 10970 10964 10960 10953 10948 10945 10940 10933 10928 10923 10918 10917 10917 10917 10917 10918 10919 10920 10919 10919 10919 10917 10916 10915 10913 10914 10914 10915 10917 10920 10922 10923 10924 10926 10928 10930 10931
10977 10979 10981 10981 10982 10983 10984 10984 10982 10981 10980 10978 10972 10969 10966 10962 10955 10951 10947 10939 10932 10927 10923 10921 10920 10919 10920 10920 10920 10921 10920 10920 10918 10916 10913 10911 10911 10912 10914 10915 10919 10922 10924 10925 10927 10929 10931 10933 10934
10971 10975 10976 10979 10981 10983 10983 10984 10984 10984 10982 10979 10976 10973 10972 10968 10962 10957 10951 10942 10937 10933 10929 10925 10925 10922 10921 10920 10920 10921 10919 10918 10918 10916 10913 10911 10913 10916 10918 10918 10920 10924 10926 10928 10929 10931 10933 10935 10935
10965 10970 10972 10976 10979 10982 10984 10984 10986 10986 10983 10982 10979 10976 10975 10972 10967 10962 10955 10949 10945 10940 10934 10932 10930 10922 10920 10919 10920 10920 10919 10918 10919 10919 10918 10918 10919 10921 10922 10923 10924 10926 10928 10930 10932 10932 10934 10935 10937
10958 10964 10967 10972 10977 10980 10983 10984 10985 10986 10986 10985 10983 10979 10978 10976 10973 10965 10960 10956 10951 10947 10942 10938 10932 10926 10923 10921 10921 10921 10919 10920 10921 10922 10924 10925 10926 10926 10927 10927 10928 10930 10931 10932 10931 10933 10936 10939 10940
10952 10958 10962 10968 10974 10977 10980 10983 10984 10985 10987 10988 10986 10982 10983 10983 10979 10974 10968 10963 10958 10954 10949 10944 10937 10933 10929 10928 10926 10927 10926 10925 10925 10927 10928 10928 10929 10929 10930 10930 10930 10931 10933 10935 10935 10936 10939 10940 10942
10943 10950 10955 10963 10969 10973 10978 10980 10982 10984 10987 10989 10989 10987 10987 10986 10984 10980 10976 10970 10964 10962 10955 10950 10944 10941 10937 10937 10936 10935 10933 10932 10932 10932 10932 10933 10934 10935 10935 10935 10935 10936 10937 10938 10939 10941 10943 10943 10944
10936 10944 10951 10956 10963 10969 10974 10977 10980 10983 10986 10987 10988 10989 10990 10989 10987 10985 10980 10974 10972 10968 10961 10958 10953 10950 10947 10946 10945 10943 10941 10941 10940 10939 10939 10939 10939 10941 10942 10942 10943 10942 10943 10943 10945 10945 10945 10947 10949
10930 10938 10945 10951 10956 10962 10968 10973 10976 10981 10984 10986 10987 10989 10991 10992 10989 10988 10982 10981 10979 10974 10968 10965 10961 10959 10956 10952 10951 10950 10949 10948 10946 10945 10943 10944 10944 10946 10947 10947 10948 10950 10948 10948 10950 10950 10950 10951 10953
10918 10926 10936 10942 10949 10957 10962 10968 10973 10977 10981 10984 10987 10991 10992 10993 10992 10989 10986 10987 10985 10981 10977 10973 10969 10967 10962 10961 10958 10956 10955 10953 10950 10949 10948 10947 10948 10949 10951 10953 10955 10956 10957 10955 10956 10956 10958 10956 10958
10907 10915 10925 10934 10944 10950 10955 10962 10967 10973 10977 10981 10985 10989 10992 10993 10993 10992 10990 10989 10988 10988 10985 10980 10976 10976 10971 10968 10966 10965 10963 10960 10957 10957 10954 10952 10952 10953 10954 10956 10959 10962 10962 10961 10961 10963 10963 10961 10962
10894 10903 10914 10923 10934 10941 10947 10955 10961 10968 10973 10978 10982 10986 10991 10992 10994 10993 10992 10989 10991 10991 10990 10986 10983 10984 10980 10977 10975 10976 10972 10968 10965 10963 10961 10959 10958 10958 10959 10961 10963 10966 10965 10964 10965 10966 10967 10968 10968
10880 10893 10903 10917 10926 10932 10939 10946 10954 10962 10968 10974 10979 10982 10986 10990 10993 10993 10992 10991 10991 10993 10992 10992 10990 10990 10987 10985 10984 10982 10979 10976 10973 10972 10971 10968 10967 10966 10966 10967 10968 10969 10969 10970 10970 10971 10971 10971 10973
10865 10882 10895 10906 10914 10925 10932 10940 10949 10956 10964 10968 10973 10978 10984 10987 10991 10993 10993 10993 10993 10994 10994 10995 10995 10995 10993 10993 10992 10988 10987 10985 10984 10981 10981 10977 10977 10977 10976 10972 10971 10972 10974 10975 10976 10976 10977 10978 10979
10852 10867 10879 10892 10905 10916 10925 10933 10943 10950 10958 10964 10970 10974 10981 10985 10990 10992 10993 10993 10993 10994 10996 10996 10996 10996 10995 10995 10995 10995 10993 10992 10991 10989 10990 10988 10988 10984 10983 10982 10980 10978 10978 10979 10980 10981 10983 10984 10983
10846 10859 10868 10884 10897 10909 10917 10925 10932 10943 10951 10959 10966 10970 10977 10983 10987 10989 10992 10993 10994 10994 10997 10999 10998 10999 10999 10999 10998 10998 10998 10998 10998 10996 10995 10995 10994 10993 10991 10989 10987 10984 10983 10983 10982 10983 10984 10986 10987
10829 10842 10858 10874 10888 10902 10910 10917 10925 10937 10945 10953 10960 10964 10971 10979 10983 10986 10989 10992 10993 10995 10997 10999 10999 11000 11000 11002 11002 11001 11002 11002 11001 11001 11000 11000 11000 10998 10997 10996 10995 10992 10990 10989 10988 10987 10986 10987 10989
10809 10825 10846 10863 10878 10891 10901 10906 10918 10928 10938 10946 10952 10958 10964 10969 10976 10982 10986 10990 10992 10994 10997 10998 11000 11000 11001 11002 11004 11004 11003 11004 11004 11005 11004 11003 11003 11002 11002 11001 11000 10999 10998 10996 10994 10992 10991 10991 10991
10807 10822 10836 10849 10866 10881 10894 10898 10908 10919 10928 10936 10944 10950 10956 10962 10969 10976 10980 10986 10990 10993 10995 10997 10999 11000 11001 11003 11003 11005 11005 11005 11005 11006 11008 11007 11004 11004 11005 11004 11003 11003 11001 11001 10999 10999 10997 10996 10996
10792 10808 10820 10841 10854 10871 10881 10890 10900 10909 10919 10927 10937 10943 10951 10957 10963 10969 10974 10979 10985 10989 10992 10995 10998 11000 11000 11001 11002 11003 11005 11005 11005 11006 11007 11008 11009 11007 11007 11005 11005 11005 11004 11004 11003 11002 11002 11002 10999
10783 10805 10823 10838 10854 10865 10871 10882 10893 10902 10912 10922 10930 10938 10944 10951 10956 10961 10968 10973 10978 10982 10987 10990 10993 10997 10999 10999 11000 11001 11003 11005 11005 11004 11005 11007 11008 11009 11008 11008 11007 11006 11005 11006 11007 11005 11004 11004 11004